ARIANE 1 DEB, 40780

Orbit data source: Space-Track

ARIANE 1 DEB, 40780 is space debris in HEO originally from a launch on Mon, 24 Dec 1979 UTC launched from the French Guiana (FRGUI). Debris objects in space refer to the collection of defunct objects orbiting the Earth. Examples of debris include non-operational satellites, rocket bodies, and fragments generated from explosions, collisions, or faulty payload assembly.

Loading next visibility...
Identifier
40780, 1979-104AH
Orbit
HEO
Country
Flag of FRFR
Related business
Manufacturer
Unknown
Mission
Spacecraft
Bus & Motor
Unknown
Mass
Unknown
Launch date (UTC)
1979-12-24 (46 years ago)
Launch vehicle
Unknown
Launch site
French Guiana (FRGUI)
Object type
Payload
Rocket body
Debris
Shape & HBR
Unknown
Radar Cross Section
Small (<0.1 m²)

Expand to show TLE details & history
Last TLE update: 12 hours ago

TLE from 12 hours ago
0 ARIANE 1 DEB
1 40780U 79104AH  25259.40483715  .00000130  00000-0  10914-2 0  9996
2 40780  19.1799 100.7735 5931074  65.3854 344.0892  3.90267985320116
Epoch: 2025-09-16T09:42Z
TLE epoch observation values (Epoch: 2025-09-16T09:42:57.929Z)
Latitude
-0.00007°
Longitude
-40.51012°
Altitude
2,464.017 km
Speed
8.171 km/s
True Right ascension
06h 43m 18s
True Declination
0° 00' 00"
Sunlit
Object was in daylight at epoch
Visualization orbit readout
Latitude
Unknown
Longitude
Unknown
Altitude
Unknown
Speed
Unknown
Apparent Right ascension
Unknown
Apparent Declination
Unknown
Sunlit
N/A
Visualization observer readout
Local Sidereal Time
14:30:59
Azimuth
Unknown
Elevation
Unknown
Doppler factor
Unknown
Orbital elements
Apogee altitude
20,776.52 km
Perigee altitude
557.383 km
Semi-major axis
17,045.089 km
Eccentricity
0.59311
Inclination
19.1799°
RAAN
100.7735°
Arg. of periapsis
65.3854°
True anomaly
294.8666°
Mean anomaly
344.0892°
Eccentric anomaly
324.2209°
Mean motion
0.97531 °/min
Orbital period
369.11 mins
BSTAR
0.0010914
Loading maneuver chart data...
Computing Atmospheric mass density...
Loading historical data...
Loading historical data...
Loading historical data...
Loading historical data...
Loading historical data...
Loading historical data...
Loading historical data...

Documentation

Showing up to 5 results
|